FMEEFMEP

Guest
Details From FMEE - St Denis Gillot
To FMEP - ST PIERRE PIERREFONDS
Flight Number -
Tags generated
Created
Modified
Stats Distance 27 nm / 50 km
Max Altitude 100 ft / 30 m
Waypoints 3
Social Downloads 2
Likes 0
Share VATSIM

Download

Looking for another format? Having issues loading an existing format? Contact us
Advertisement - Login to hide

Notes

Basic altitude profile: - Ascent Rate: 2500ft/min - Ascent Speed: 250kts - Cruise Altitude: 35000ft - Cruise Speed: 420kts - Descent Rate: 1500ft/min - Descent Speed: 250kts

Route

FMEE SDG FMEP

ID Type Via Altitude (ft/m) Position (lat/lon) Dist (leg/tot) Name
O FMEE APT - 0 / 0 -20.88931 / 55.51775 - / 0 nm St Denis Gillot
SDG VOR - 100 / 30 -20.88483 / 55.50981 0 / 0 nm ST DENIS GILLOT VOR-DME
O FMEP APT - 0 / 0 -21.32004 / 55.42358 26 / 27 nm ST PIERRE PIERREFONDS

Altitude Profile

Advertisement - Login to hide

FMEE

Details ICAO FMEE (RUN)
Name Roland Garros
Region Comoros, Mayotte, Réunion and Madagascar
Timezone Indian/Reunion (UTC+4.0)
Stats Elevation 64 ft / 20 m (AMSL)
Location -20.889300° 55.517800°
Runways 2
Magnetic Variation 18.946° W

METAR

FMEE 170930Z AUTO 09019KT 9999 FEW041 BKN094 BKN220 30/19 Q1016 TEMPO 10020G30KT

Decode

TAF

TAF FMEE 170500Z 1706/1812 10020KT 9999 SCT030 SCT050 TEMPO 1706/1715 10020G30KT BECMG 1719/1721 16012KT BECMG 1804/1806 11020G30KT

Decode

Departure Runways

ID Width Length Bearing (true/mag) Surface Threshold Overrun Markings Lighting
12 148 ft / 45 m 10,508 ft / 3,203 m 102.26° / 121.21° ASPHALT 397 ft / 121 m 0 ft / 0 m PREC-APP CENTERLINE EDGE THRESHOLD ALSF-I REIL-UNI
14 148 ft / 45 m 8,768 ft / 2,672 m 116.55° / 135.49° ASPHALT 328 ft / 100 m 0 ft / 0 m PREC-APP CENTERLINE EDGE THRESHOLD ALSF-I REIL-UNI
30 148 ft / 45 m 10,508 ft / 3,203 m 282.25° / 301.20° ASPHALT 0 ft / 0 m 0 ft / 0 m PREC-APP CENTERLINE EDGE THRESHOLD ALSF-I REIL-UNI
32 148 ft / 45 m 8,768 ft / 2,672 m 296.54° / 315.49° ASPHALT 1,175 ft / 358 m 0 ft / 0 m PREC-APP CENTERLINE EDGE THRESHOLD ALSF-I REIL-UNI

FMEP

Details ICAO FMEP (ZSE)
Name ST PIERRE PIERREFONDS
Region Comoros, Mayotte, Réunion and Madagascar
Timezone Unknown
Stats Elevation 56 ft / 17 m (AMSL)
Location -21.319400° 55.422600°
Runways 1
Magnetic Variation 19.496° W

METAR

FMEP 170930Z AUTO 13028KT CAVOK 30/20 Q1015 TEMPO 13025G37KT

Decode

TAF

Not found

Destination Runways

ID Width Length Bearing (true/mag) Surface Threshold Overrun Markings Lighting
15 133 ft / 41 m 6,900 ft / 2,103 m 129.13° / 148.63° ASPHALT 0 ft / 0 m 0 ft / 0 m APP
33 133 ft / 41 m 6,900 ft / 2,103 m 309.12° / 328.62° ASPHALT 0 ft / 0 m 0 ft / 0 m APP

Popular Alternatives